Flag for United Kingdom Weather past 2 weeks in Inverness, Scotland, United Kingdom

Now
48 °F

Scattered showers. Partly sunny.


Feels Like: 43 °F
Forecast: 39 / 58 °F
Wind: 12 mph from Northwest

Location: Inverness / Dalcross

Current Time: Jun 3, 2015 at 11:19:15 PM

Latest Report: Jun 3, 2015 at 10:20 PM


Visibility: N/A

Pressure: 30.18 "Hg

Humidity: 82%

Dew point: 43 °F

Location of InvernessLocation

Historic Weather in Inverness — Graph

°F

Inverness temperature yesterday

Maximum temperature yesterday: 54 °F (at 3:50 PM)
Minimum temperature yesterday: 32 °F (at 3:50 AM)
Average temperature yesterday: 46 °F

Past Weeks' High & Low Weather Summary

 TemperatureHumidityPressure
High61 °F (May 23, 12:20 PM)94% (May 23, 8:20 PM)30.30 "Hg (May 23, 8:20 PM)
Low32 °F (Jun 2, 3:50 AM)31% (May 23, 12:20 PM)28.91 "Hg (Jun 2, 1:50 AM)
Average49 °F75%29.80 "Hg
* Reported May 19 9:20 PM — Jun 3 9:20 PM, Inverness, Weather by CustomWeather, © 2015

Note: Actual official high and low records may vary slightly from our data, if they occured in-between our weather recording intervals... More about our weather records

Advertising

Inverness weather history for previous 24 hours

 ConditionsComfort  
Time TempWeatherWind HumidityBarometerVisibility
9:20 PM
Wed, Jun 3
50 °FScattered showers. Partly sunny.8 mph71%30.15 "HgN/A
8:50 PM50 °FScattered showers. Scattered clouds.12 mph67%30.15 "HgN/A
8:20 PM52 °FScattered showers. Scattered clouds.16 mph62%30.12 "HgN/A
7:50 PM54 °FScattered showers. Scattered clouds.14 mph54%30.12 "HgN/A
7:20 PM54 °FScattered showers. Scattered clouds.18 mph54%30.12 "HgN/A
6:50 PM54 °FScattered showers. Scattered clouds.16 mph54%30.09 "HgN/A
6:20 PM54 °FScattered showers. Scattered clouds.17 mph54%30.09 "HgN/A
5:50 PM55 °FScattered clouds.15 mph51%30.09 "HgN/A
5:20 PM54 °FScattered showers. Scattered clouds.12 mph63%30.09 "HgN/A
4:50 PM52 °FScattered showers. Scattered clouds.13 mph72%30.09 "HgN/A
4:20 PM54 °FScattered showers. Broken clouds.17 mph67%30.07 "HgN/A
3:50 PM52 °FSprinkles. Broken clouds.15 mph72%30.07 "HgN/A
3:20 PM55 °FScattered showers. Broken clouds.12 mph55%30.04 "HgN/A
2:50 PM55 °FScattered showers. Partly sunny.15 mph59%30.04 "HgN/A
2:20 PM54 °FScattered showers. Partly sunny.13 mph58%30.04 "HgN/A
1:50 PM55 °FScattered showers. Partly sunny.16 mph55%30.01 "HgN/A
1:20 PM54 °FScattered showers. Partly sunny.14 mph58%30.01 "HgN/A
12:50 PM55 °FScattered showers. Scattered clouds.15 mph59%29.98 "HgN/A
12:20 PM54 °FSprinkles. Scattered clouds.12 mph72%29.98 "HgN/A
11:50 AM54 °FScattered showers. Scattered clouds.16 mph63%29.95 "HgN/A
11:20 AM54 °FScattered showers. Scattered clouds.16 mph63%29.95 "HgN/A
10:50 AM54 °FScattered showers. Scattered clouds.22 mph58%29.92 "HgN/A
10:20 AM52 °FScattered showers. Scattered clouds.18 mph67%29.92 "HgN/A
9:50 AM52 °FScattered clouds.18 mph62%29.89 "HgN/A
9:20 AM50 °FPartly sunny.16 mph67%29.86 "HgN/A
8:50 AM50 °FPassing clouds.15 mph67%29.86 "HgN/A
8:20 AM50 °FPassing clouds.18 mph67%29.83 "HgN/A
7:50 AM50 °FScattered clouds.15 mph67%29.80 "HgN/A
7:20 AM48 °FScattered clouds.14 mph71%29.80 "HgN/A
6:50 AM48 °FScattered clouds.16 mph71%29.77 "HgN/A
6:20 AM45 °FScattered clouds.13 mph81%29.77 "HgN/A
5:50 AM45 °FPassing clouds.14 mph81%29.74 "HgN/A
5:20 AM43 °FPassing clouds.14 mph87%29.71 "HgN/A
4:20 AM41 °FPassing clouds.8 mph87%29.71 "HgN/A
3:50 AM43 °FPassing clouds.10 mph81%29.68 "HgN/A
3:20 AM45 °FPassing clouds.14 mph81%29.65 "HgN/A
2:50 AM43 °FPassing clouds.10 mph81%29.65 "HgN/A
2:20 AM41 °FClear.9 mph87%29.62 "Hg10 mi
1:50 AM45 °FClear.10 mph76%29.62 "Hg10 mi
1:20 AM46 °FCool.14 mph76%29.59 "HgN/A
12:50 AM46 °FCool.12 mph76%29.56 "HgN/A
12:20 AM46 °FCool.12 mph82%29.56 "HgN/A
11:50 PM
Tue, Jun 2
46 °FCool.15 mph76%29.53 "HgN/A
11:20 PM48 °FPartly cloudy.14 mph76%29.53 "HgN/A
Weather by CustomWeather, © 2015

See weather overviewHow to use our weather pages